星链-5606 (STARLINK-5606 )

导读 | 星芒AI

STARLINK-5606 是 SpaceX Starlink 项目中的一颗低轨通信卫星,属于第 16 批组网发射的星群。该卫星于 2022 年 3 月 30 日由猎鹰 9 号火箭送入近地轨道,旨在为全球提供高速互联网服务。它运行在约 550 公里的高度,具备先进通信技术,支持低延迟、高带宽的数据传输。作为 Starlink 网络的一部分,STARLINK-5606 有助于提升偏远地区的网络覆盖,促进全球数字连接。

基本信息
目录编号:
55767
目录名称:
STARLINK-5606
国际标识:
2023-028AC
轨道中心:
EARTH
卫星名称:
星链-5606
卫星全名:
星链-5606 (STARLINK-5606 )
卫星状态:
在轨 (已飞行1024 天)
发射日期:
2023-03-03 UTC
国别 :
美国 (US)
星等 :
--
轨道信息
数据来源 国际轨道数据
星历时间: 2025-12-21T06:43:26+0800
16小时前
查看轨道信息
半长轴: 6950.216km
偏心率: 0.0002992
轨道倾角: 70.001°
近地点辐角 276.087°
升交点赤经 63.181°
平近点角 83.995°
近地点: 569.999km
远地点: 574.159km
周期: 96.107分钟
每日圈数: 14.983228
详细信息
固有亮度:
5
最大亮度:
2.5
卫星平台:
Starlink v1.5
覆盖范围:
全球
运营商:
太空探索技术公司
运营商所在国:
美国
制造商(研发单位):
太空探索技术公司
制造商所在国:
美国
使用方式:
暂无
卫星简介
星链(Starlink)计划是由太空探索技术公司(SpaceX)提出的一个巨型低轨卫星互联网星座项目,计划在2019年至2024年间在太空搭建由约1.2万颗卫星组成的“星链”网络,其中1584颗将部署在地球上空550千米处的近地轨道,并从2020年开始工作。该卫星仍在工作。
2D轨道图
3D轨道图
轨道高度分析图
轨道倾角分析图
轨道综合分析图
查看轨道综合分析图